Simultaneous Nadir Overpasses (SNOs) Predictions

Prediction of SNOs between NOAA-15 and METOP-C Satellite Orbit:

Table of predicted SNOs for the next 14.0 days since TLE Epoch: 6/20/2022
Index Date (NOAA-15) Time (NOAA-15) Lat,Lon (NOAA-15) SZA (NOAA-15 ) Date (METOP-C) Time (METOP-C) Lat,Lon (METOP-C) SZA (METOP-C ) Distance(km) Time Diff (sec)
1 07/02/2022 03:14:45 -81.06, -10.46 120.07 07/02/2022 03:13:35 -81.07, -10.45 120.10 0.71 70
2 07/02/2022 04:05:17 81.07, 156.80 59.93 07/02/2022 04:04:15 81.06, 156.64 59.88 2.83 62
3 07/02/2022 04:55:47 -81.07, -35.80 120.07 07/02/2022 04:54:57 -81.06, -35.94 120.11 2.49 50
4 07/02/2022 05:46:19 81.07, 131.45 59.93 07/02/2022 05:45:36 81.07, 131.52 59.91 1.17 43
5 07/02/2022 06:36:49 -81.07, -61.15 120.07 07/02/2022 06:36:18 -81.07, -61.07 120.08 1.40 31
6 07/02/2022 07:27:21 81.08, 106.11 59.93 07/02/2022 07:26:58 81.06, 106.02 59.90 2.13 23
7 07/02/2022 08:17:51 -81.08, -86.50 120.08 07/02/2022 08:17:40 -81.07, -86.56 120.09 1.52 11
8 07/02/2022 09:08:23 81.08, 80.77 59.92 07/02/2022 09:08:19 81.07, 80.90 59.93 2.42 4
9 07/02/2022 09:58:53 -81.08,-111.84 120.08 07/02/2022 09:59:01 -81.08,-111.69 120.06 2.73 8
10 07/02/2022 10:49:24 81.07, 55.80 59.95 07/02/2022 10:49:40 81.08, 55.78 59.96 1.45 16
11 07/02/2022 11:39:55 -81.08,-137.19 120.08 07/02/2022 11:40:23 -81.07,-137.18 120.08 1.56 28
12 07/02/2022 12:30:26 81.07, 30.46 59.95 07/02/2022 12:31:02 81.07, 30.28 59.95 3.04 36
13 07/02/2022 13:20:56 -81.07,-162.17 120.05 07/02/2022 13:21:44 -81.08,-162.30 120.04 2.50 48
14 07/02/2022 14:11:28 81.08, 5.11 59.95 07/02/2022 14:12:23 81.08, 5.16 59.98 1.14 55
15 07/02/2022 15:01:58 -81.08, 172.49 120.06 07/02/2022 15:03:05 -81.09, 172.57 120.01 1.91 67



Historial Predications of SNOs between NOAA-15 and METOP-C
